Preview of NWS' New Version of Forecast
This preview is not operational and should not be used for support decisions.

Terminal Aerodrome Forecast (TAF)

Issued by National Weather Service (NWS)

                            
000
FTUS42 KCAE 200533
TAFOGB
TAF
KOGB 200533Z 2006/2106 07004KT P6SM SKC
     FM201500 08007KT P6SM FEW250
     FM210200 VRB02KT P6SM SKC=